DLH431 KORD-EDDF

Flight info

Callsign DLH431
Flight time N/A
Altitude 31000
Route RAYNR DCT BRTMN DCT TAAYZ DCT TVC DCT DASUG DCT SELBO DCT BROME DCT DORYY/M084F330 NATS KESIX/N0484F330 DCT AMLAD DCT EMGAT/N0478F350 DCT ERKIT N110 DOLAS DCT NAVPI DCT NOLRU DCT DIXAT DIXAT1D
Aircraft A346/H-SDE2E3FGHIJ3J4J5M1RWXY/LB1D1

Departure

Time 2026-04-30 08:39
Airport Chicago O'Hare International Airport (KORD)

Arrival

Time N/A
Airport Frankfurt Main Airport (EDDF)
Time Latitude Longitude Altitude Speed Heading
2026-04-30 08:00 41.98141 -87.90699 675 ft 0 kts 99°
2026-04-30 08:26 41.98142 -87.90706 677 ft 4 kts 100°
2026-04-30 08:26 41.98147 -87.90742 677 ft 4 kts 98°
2026-04-30 08:26 41.98150 -87.90752 677 ft 4 kts 61°
2026-04-30 08:27 41.98139 -87.90773 670 ft 4 kts 37°
2026-04-30 08:27 41.98124 -87.90781 671 ft 4 kts 357°
2026-04-30 08:27 41.98098 -87.90776 670 ft 3 kts 353°
2026-04-30 08:27 41.98093 -87.90775 675 ft 0 kts 355°
2026-04-30 08:31 41.98096 -87.90775 675 ft 1 kts 355°
2026-04-30 08:32 41.98111 -87.90777 670 ft 3 kts 355°
2026-04-30 08:32 41.98140 -87.90781 676 ft 5 kts 354°
2026-04-30 08:32 41.98183 -87.90786 672 ft 7 kts 355°
2026-04-30 08:32 41.98237 -87.90792 676 ft 8 kts
2026-04-30 08:33 41.98277 -87.90745 676 ft 9 kts 68°
2026-04-30 08:33 41.98288 -87.90652 676 ft 11 kts 86°
2026-04-30 08:33 41.98288 -87.90539 676 ft 13 kts 90°
2026-04-30 08:33 41.98287 -87.90417 676 ft 13 kts 90°
2026-04-30 08:34 41.98286 -87.90289 677 ft 14 kts 89°
2026-04-30 08:34 41.98287 -87.90154 677 ft 15 kts 89°
2026-04-30 08:34 41.98289 -87.90013 677 ft 15 kts 89°
2026-04-30 08:34 41.98289 -87.89871 678 ft 15 kts 90°
2026-04-30 08:35 41.98288 -87.89728 678 ft 16 kts 90°
2026-04-30 08:35 41.98289 -87.89578 678 ft 16 kts 89°
2026-04-30 08:35 41.98289 -87.89430 678 ft 15 kts 90°
2026-04-30 08:35 41.98289 -87.89292 677 ft 15 kts 90°
2026-04-30 08:36 41.98289 -87.89146 676 ft 16 kts 90°
2026-04-30 08:36 41.98288 -87.89013 676 ft 11 kts 90°
2026-04-30 08:36 41.98302 -87.88946 674 ft 7 kts 34°
2026-04-30 08:36 41.98361 -87.88944 675 ft 9 kts 353°
2026-04-30 08:37 41.98385 -87.88975 675 ft 5 kts 288°
2026-04-30 08:37 41.98387 -87.89003 676 ft 0 kts 272°
2026-04-30 08:37 41.98387 -87.89005 676 ft 0 kts 272°
2026-04-30 08:37 41.98388 -87.89046 676 ft 21 kts 272°
2026-04-30 08:38 41.98389 -87.89544 680 ft 85 kts 270°
2026-04-30 08:38 41.98391 -87.90610 676 ft 141 kts 270°
2026-04-30 08:38 41.98385 -87.92149 677 ft 185 kts 274°
2026-04-30 08:38 41.98378 -87.93944 1072 ft 192 kts 275°
2026-04-30 08:39 41.98384 -87.95754 1689 ft 194 kts 274°
2026-04-30 08:39 41.98411 -87.97586 2238 ft 198 kts 281°
2026-04-30 08:39 41.98910 -87.99325 2657 ft 204 kts 306°
2026-04-30 08:39 41.99767 -88.00875 3039 ft 213 kts 310°
2026-04-30 08:40 42.00753 -88.02460 3325 ft 228 kts 311°
2026-04-30 08:40 42.01829 -88.04126 3636 ft 243 kts 312°
2026-04-30 08:40 42.02985 -88.05889 3941 ft 258 kts 312°
2026-04-30 08:40 42.04211 -88.07729 4393 ft 268 kts 315°
2026-04-30 08:41 42.05767 -88.09128 5034 ft 273 kts 340°
2026-04-30 08:41 42.07663 -88.09396 5654 ft 281 kts
2026-04-30 08:41 42.09575 -88.08723 6286 ft 287 kts 13°
2026-04-30 08:41 42.11503 -88.07909 6814 ft 293 kts 14°
2026-04-30 08:42 42.13473 -88.07074 7371 ft 298 kts 13°
2026-04-30 08:42 42.15434 -88.06246 7926 ft 301 kts 13°
2026-04-30 08:42 42.17447 -88.05401 8480 ft 304 kts 13°
2026-04-30 08:42 42.19507 -88.04542 9103 ft 308 kts 13°
2026-04-30 08:43 42.21566 -88.03682 9719 ft 312 kts 13°
2026-04-30 08:43 42.23650 -88.02811 10255 ft 316 kts 13°
2026-04-30 08:43 42.25733 -88.01937 10803 ft 319 kts 13°
2026-04-30 08:43 42.27889 -88.01034 11140 ft 330 kts 13°
2026-04-30 08:44 42.30129 -88.00098 11392 ft 344 kts 13°
2026-04-30 08:44 42.32453 -87.99125 11644 ft 357 kts 13°
2026-04-30 08:44 42.34910 -87.98094 11900 ft 370 kts 13°
2026-04-30 08:44 42.37371 -87.97059 12246 ft 380 kts 13°
2026-04-30 08:45 42.39934 -87.95944 12820 ft 384 kts 17°
2026-04-30 08:45 42.42261 -87.94187 13360 ft 393 kts 32°
2026-04-30 08:45 42.44436 -87.91912 13970 ft 396 kts 35°
2026-04-30 08:45 42.46591 -87.89557 14448 ft 400 kts 35°
2026-04-30 08:46 42.48787 -87.87190 14885 ft 404 kts 34°
2026-04-30 08:46 42.51011 -87.84839 15373 ft 407 kts 34°
2026-04-30 08:46 42.53269 -87.82487 15886 ft 410 kts 33°
2026-04-30 08:46 42.55553 -87.80130 16336 ft 414 kts 33°
2026-04-30 08:47 42.57859 -87.77762 16816 ft 418 kts 33°
2026-04-30 08:47 42.60196 -87.75368 17300 ft 421 kts 33°
2026-04-30 08:47 42.62543 -87.72968 17789 ft 424 kts 33°
2026-04-30 08:47 42.64911 -87.70544 18269 ft 428 kts 33°
2026-04-30 08:48 42.67298 -87.68105 18665 ft 431 kts 33°
2026-04-30 08:48 42.69713 -87.65632 19059 ft 435 kts 33°
2026-04-30 08:48 42.72137 -87.63146 19451 ft 438 kts 32°
2026-04-30 08:48 42.74582 -87.60638 19844 ft 442 kts 32°
2026-04-30 08:49 42.77048 -87.58105 20226 ft 445 kts 32°
2026-04-30 08:49 42.79523 -87.55561 20621 ft 448 kts 32°
2026-04-30 08:49 42.82021 -87.52990 20993 ft 451 kts 32°
2026-04-30 08:49 42.84539 -87.50396 21375 ft 455 kts 32°
2026-04-30 08:50 42.87071 -87.47786 21762 ft 458 kts 32°
2026-04-30 08:50 42.89621 -87.45154 22114 ft 461 kts 32°
2026-04-30 08:50 42.92187 -87.42502 22491 ft 464 kts 32°
2026-04-30 08:50 42.94743 -87.39858 22834 ft 467 kts 32°
2026-04-30 08:51 42.97339 -87.37170 23199 ft 470 kts 32°
2026-04-30 08:51 42.99955 -87.34459 23556 ft 473 kts 32°
2026-04-30 08:51 43.02586 -87.31730 23864 ft 476 kts 32°
2026-04-30 08:51 43.05235 -87.28980 24156 ft 479 kts 32°
2026-04-30 08:52 43.07896 -87.26212 24458 ft 482 kts 32°
2026-04-30 08:52 43.10575 -87.23422 24762 ft 484 kts 32°
2026-04-30 08:52 43.13260 -87.20622 25051 ft 486 kts 32°
2026-04-30 08:52 43.15958 -87.17805 25368 ft 489 kts 32°
2026-04-30 08:53 43.18675 -87.14967 25666 ft 491 kts 32°
2026-04-30 08:53 43.21403 -87.12115 26003 ft 493 kts 32°
2026-04-30 08:53 43.24135 -87.09255 26297 ft 495 kts 32°
2026-04-30 08:53 43.26875 -87.06381 26607 ft 497 kts 32°
2026-04-30 08:54 43.29632 -87.03486 26869 ft 499 kts 32°
2026-04-30 08:54 43.32399 -87.00578 27154 ft 501 kts 33°
2026-04-30 08:54 43.35175 -86.97656 27432 ft 504 kts 33°
2026-04-30 08:54 43.37961 -86.94720 27705 ft 506 kts 33°
2026-04-30 08:55 43.40767 -86.91765 27951 ft 508 kts 33°
2026-04-30 08:55 43.43541 -86.88839 28224 ft 510 kts 33°
2026-04-30 08:55 43.46363 -86.85853 28544 ft 511 kts 33°
2026-04-30 08:55 43.49173 -86.82875 28951 ft 510 kts 33°
2026-04-30 08:56 43.51988 -86.79889 29362 ft 509 kts 33°
2026-04-30 08:56 43.54801 -86.76901 29756 ft 508 kts 33°
2026-04-30 08:56 43.57597 -86.73930 30105 ft 508 kts 33°
2026-04-30 08:56 43.60402 -86.70951 30425 ft 508 kts 33°
2026-04-30 08:57 43.63201 -86.67973 30667 ft 509 kts 33°
2026-04-30 08:57 43.66010 -86.64979 30897 ft 510 kts 33°
2026-04-30 08:57 43.68828 -86.61969 31015 ft 512 kts 34°
2026-04-30 08:58 43.74480 -86.55924 31002 ft 519 kts 34°
2026-04-30 08:58 43.80260 -86.49737 31030 ft 529 kts 34°
2026-04-30 08:59 43.85111 -86.44523 31017 ft 531 kts 34°
2026-04-30 08:59 43.91888 -86.37212 31014 ft 531 kts 34°
2026-04-30 09:00 43.97721 -86.30908 31033 ft 531 kts 35°
2026-04-30 09:00 44.03544 -86.24603 31011 ft 531 kts 35°
2026-04-30 09:01 44.09369 -86.18275 31009 ft 531 kts 35°
2026-04-30 09:01 44.14225 -86.12992 31004 ft 532 kts 35°
2026-04-30 09:02 44.23957 -86.02366 31007 ft 531 kts 36°
2026-04-30 09:02 44.29733 -85.96033 31006 ft 531 kts 36°
2026-04-30 09:03 44.35552 -85.89639 31027 ft 531 kts 36°
2026-04-30 09:03 44.41363 -85.83240 31013 ft 531 kts 36°
2026-04-30 09:04 44.46185 -85.77915 31006 ft 531 kts 36°
2026-04-30 09:04 44.51987 -85.71492 31004 ft 531 kts 36°
2026-04-30 09:05 44.57747 -85.64967 31002 ft 532 kts 40°
2026-04-30 09:05 44.63059 -85.57694 31006 ft 533 kts 44°
2026-04-30 09:06 44.68272 -85.50268 31005 ft 533 kts 45°
2026-04-30 09:06 44.73295 -85.42559 30992 ft 534 kts 46°
2026-04-30 09:07 44.78293 -85.34835 31000 ft 533 kts 46°
2026-04-30 09:07 44.83274 -85.27163 30997 ft 533 kts 46°
2026-04-30 09:08 44.88289 -85.19445 30997 ft 533 kts 46°
2026-04-30 09:08 44.93302 -85.11720 30999 ft 533 kts 46°
2026-04-30 09:09 44.98304 -85.03990 30990 ft 533 kts 46°
2026-04-30 09:09 45.03297 -84.96258 30989 ft 533 kts 47°
2026-04-30 09:10 45.08285 -84.88505 31000 ft 533 kts 47°
2026-04-30 09:10 45.13271 -84.80737 30997 ft 532 kts 47°
2026-04-30 09:11 45.18250 -84.72952 30986 ft 532 kts 47°
2026-04-30 09:11 45.23223 -84.65159 30990 ft 532 kts 47°
2026-04-30 09:12 45.28162 -84.57401 30989 ft 533 kts 47°
2026-04-30 09:12 45.33137 -84.49563 30998 ft 533 kts 48°
2026-04-30 09:13 45.38105 -84.41708 31001 ft 534 kts 48°
2026-04-30 09:13 45.43067 -84.33840 31005 ft 533 kts 48°
2026-04-30 09:14 45.48028 -84.25960 31009 ft 533 kts 48°
2026-04-30 09:14 45.52977 -84.18070 30986 ft 533 kts 48°
2026-04-30 09:15 45.57925 -84.10163 30988 ft 534 kts 48°
2026-04-30 09:15 45.62870 -84.02235 31001 ft 534 kts 49°
2026-04-30 09:16 45.67776 -83.94347 30996 ft 534 kts 49°
2026-04-30 09:16 45.72714 -83.86384 30991 ft 534 kts 49°
2026-04-30 09:17 45.77647 -83.78407 30984 ft 534 kts 49°
2026-04-30 09:17 45.82568 -83.70429 30981 ft 533 kts 49°
2026-04-30 09:18 45.87479 -83.62445 30964 ft 534 kts 49°
2026-04-30 09:18 45.92395 -83.54423 30972 ft 534 kts 49°
2026-04-30 09:19 45.97302 -83.46395 30974 ft 534 kts 49°
2026-04-30 09:19 46.02169 -83.38411 30998 ft 534 kts 49°
2026-04-30 09:20 46.07062 -83.30360 30984 ft 534 kts 49°
2026-04-30 09:20 46.11950 -83.22294 30955 ft 534 kts 50°
2026-04-30 09:21 46.16834 -83.14212 30977 ft 534 kts 50°
2026-04-30 09:21 46.21709 -83.06119 30977 ft 534 kts 50°
2026-04-30 09:22 46.26575 -82.98017 30979 ft 533 kts 50°
2026-04-30 09:22 46.31437 -82.89897 30973 ft 534 kts 50°
2026-04-30 09:23 46.36271 -82.81802 30985 ft 533 kts 50°
2026-04-30 09:23 46.41121 -82.73657 30955 ft 533 kts 50°
2026-04-30 09:24 46.45979 -82.65470 30971 ft 534 kts 50°
2026-04-30 09:24 46.50798 -82.57328 30979 ft 534 kts 50°
2026-04-30 09:25 46.55640 -82.49123 30973 ft 534 kts 50°
2026-04-30 09:25 46.60474 -82.40905 30977 ft 534 kts 50°
2026-04-30 09:26 46.65303 -82.32671 30979 ft 534 kts 50°
2026-04-30 09:26 46.70125 -82.24426 30966 ft 534 kts 50°
2026-04-30 09:27 46.74948 -82.16153 30978 ft 535 kts 50°
2026-04-30 09:27 46.79763 -82.07867 30981 ft 535 kts 51°
2026-04-30 09:28 46.84565 -81.99579 30981 ft 535 kts 51°
2026-04-30 09:28 46.89376 -81.91253 30983 ft 535 kts 51°
2026-04-30 09:29 46.94140 -81.82980 30991 ft 535 kts 51°
2026-04-30 09:29 46.98931 -81.74637 30975 ft 535 kts 51°
2026-04-30 09:30 47.03717 -81.66277 30986 ft 535 kts 51°
2026-04-30 09:30 47.08508 -81.57882 30997 ft 535 kts 51°
2026-04-30 09:31 47.13286 -81.49483 30984 ft 535 kts 51°
2026-04-30 09:31 47.18057 -81.41071 30992 ft 535 kts 51°
2026-04-30 09:32 47.22824 -81.32638 30990 ft 535 kts 51°
2026-04-30 09:32 47.27586 -81.24188 31000 ft 536 kts 51°
2026-04-30 09:33 47.32314 -81.15775 30990 ft 536 kts 51°